Location: Ravensburg
(47.7866°N, 9.6124°E)
Time: 15:51:55
(UTC+02:00)

ITAMSAT 1 - Pass Details

Date: 19 March 2026
Orbit: 782 x 793 km, 98.7° (Epoch: 18 April)

Event Time Altitude Azimuth Distance (km) Brightness Sun altitude
Exits shadow 20:00:57 16° 68° (ENE) 1,966 9.3 -15.4°
Maximum altitude 20:01:48 17° 56° (NE) 1,932 9.3 -15.6°
Drops below altitude 10° 20:04:58 10° 18° (NNE) 2,358 10.1 -16.1°
Sets 20:08:06 0° 359° (N) 3,294 11.1 -16.6°
